Home   Weather   Penza   Past weeks

Flag for Russia Past Weather in Penza, Russia — Yesterday and Last 2 Weeks

36 °F

Passing clouds.

Feels Like: 28 °F
Forecast: 24 / 37 °F
Wind: 10 mph from Northeast

Location: Saratov / Tsentralny

Current Time: Oct 23, 2016 at 5:28:39 PM

Latest Report: Oct 23, 2016 at 5:00 PM

Visibility: N/A

Pressure: 30.80 "Hg

Humidity: 70%

Dew Point: 27 °F

Location of PenzaLocation

Past Weather in Penza — Graph


Penza Temperature Yesterday

Maximum temperature yesterday: 43 °F (at 3:00 PM)
Minimum temperature yesterday: 32 °F (at 7:00 AM)
Average temperature yesterday: 37 °F

High & Low Weather Summary for the Past Weeks

High64 °F (Oct 8, 4:00 PM)100% (Oct 16, 4:00 AM)30.80 "Hg (Oct 16, 4:00 AM)
Low28 °F (Oct 14, 6:00 AM)42% (Oct 17, 1:00 PM)29.98 "Hg (Oct 17, 8:30 AM)
Average40 °F73%30.37 "Hg
* Reported Oct 8 4:00 PM — Oct 23 4:00 PM, Penza, Weather by CustomWeather, © 2016

Note: Actual official high and low records may vary slightly from our data, if they occured in-between our weather recording intervals... More about our weather records


Penza Weather History for the Previous 24 Hours

Scroll right to see more
Time TempWeatherWind HumidityBarometerVisibility
4:00 PM
Sun, Oct 23
37 °FPartly sunny.13 mph65%30.80 "HgN/A
3:30 PM39 °FBroken clouds.10 mph52%30.80 "HgN/A
3:00 PM39 °FBroken clouds.8 mph52%30.80 "HgN/A
2:00 PM41 °FBroken clouds.13 mph49%30.80 "HgN/A
1:00 PM41 °FSunny.13 mph49%30.80 "Hg10 mi
12:30 PM39 °FSunny.13 mph52%30.80 "Hg10 mi
12:00 PM39 °FSunny.10 mph52%30.80 "Hg10 mi
11:30 AM39 °FSunny.13 mph56%30.80 "Hg10 mi
11:00 AM39 °FSunny.13 mph56%30.80 "Hg10 mi
10:30 AM36 °FSunny.13 mph60%30.77 "Hg10 mi
10:00 AM36 °FSunny.13 mph60%30.77 "Hg10 mi
9:30 AM30 °FSunny.10 mph86%30.77 "Hg10 mi
9:00 AM30 °FSunny.8 mph86%30.77 "Hg10 mi
8:30 AM28 °FSunny.8 mph93%30.77 "Hg10 mi
8:00 AM28 °FSunny.1 mph93%30.77 "Hg10 mi
7:30 AM30 °FSunny.3 mph86%30.77 "Hg10 mi
7:00 AM30 °FSunny.3 mph86%30.77 "Hg10 mi
6:30 AM30 °FClear.3 mph86%30.74 "Hg10 mi
6:00 AM30 °FClear.3 mph86%30.74 "Hg10 mi
5:30 AM30 °FClear.3 mph75%30.74 "Hg10 mi
5:00 AM30 °FClear.3 mph75%30.74 "Hg10 mi
4:30 AM30 °FClear.6 mph80%30.74 "Hg10 mi
4:00 AM30 °FClear.6 mph80%30.74 "Hg10 mi
3:30 AM32 °FClear.6 mph75%30.74 "Hg10 mi
3:00 AM32 °FClear.6 mph75%30.74 "Hg10 mi
2:00 AM32 °FClear.3 mph75%30.74 "Hg10 mi
1:00 AM34 °FClear.6 mph75%30.74 "Hg10 mi
12:00 AM34 °FClear.3 mph75%30.72 "Hg10 mi
11:00 PM
Sat, Oct 22
34 °FClear.6 mph75%30.72 "Hg10 mi
10:30 PM34 °FClear.3 mph75%30.72 "Hg10 mi
10:00 PM34 °FClear.1 mph75%30.72 "Hg10 mi
9:30 PM36 °FClear.3 mph70%30.72 "Hg10 mi
9:00 PM36 °FClear.3 mph70%30.72 "Hg10 mi
8:30 PM36 °FClear.3 mph70%30.72 "Hg10 mi
8:00 PM36 °FClear.3 mph70%30.72 "Hg10 mi
7:30 PM37 °FClear.3 mph70%30.72 "Hg10 mi
7:00 PM37 °FPassing clouds.3 mph70%30.72 "HgN/A
6:30 PM37 °FPassing clouds.6 mph65%30.69 "HgN/A
6:00 PM37 °FPassing clouds.6 mph65%30.69 "HgN/A
5:30 PM39 °FPassing clouds.6 mph56%30.69 "HgN/A
5:00 PM39 °FPassing clouds.6 mph56%30.69 "HgN/A
Weather by CustomWeather, © 2016

See weather overviewHow to use our weather pages